GIA107 WAMM-YSSY

Flight info

Callsign GIA107
Flight time N/A
Altitude 35000
Route RUMBO W55 AMN R340 IGOPO/N0457F370 R340 SURVO Y161 OVNOM H652 BOREE
Aircraft B38M/M-SDE1FGHILORVWXY/HB1

Departure

Time 2026-05-07 04:26
Airport Sam Ratulangi International Airport (WAMM)

Arrival

Time N/A
Airport Sydney Kingsford Smith International Airport (YSSY)
Time Latitude Longitude Altitude Speed Heading
2026-05-07 04:13 1.54196 124.92340 339 ft 0 kts 272°
2026-05-07 04:16 1.54195 124.92348 339 ft 4 kts 271°
2026-05-07 04:17 1.54195 124.92375 339 ft 4 kts 266°
2026-05-07 04:17 1.54200 124.92400 339 ft 4 kts 246°
2026-05-07 04:17 1.54205 124.92409 333 ft 4 kts 223°
2026-05-07 04:17 1.54216 124.92415 333 ft 1 kts 181°
2026-05-07 04:22 1.54214 124.92415 333 ft 1 kts 181°
2026-05-07 04:22 1.54203 124.92415 338 ft 2 kts 181°
2026-05-07 04:22 1.54182 124.92414 334 ft 4 kts 181°
2026-05-07 04:22 1.54150 124.92413 335 ft 6 kts 181°
2026-05-07 04:23 1.54098 124.92412 339 ft 10 kts 181°
2026-05-07 04:23 1.53999 124.92416 336 ft 19 kts 158°
2026-05-07 04:23 1.53855 124.92431 338 ft 22 kts 182°
2026-05-07 04:23 1.53788 124.92433 335 ft 8 kts 165°
2026-05-07 04:24 1.53748 124.92471 338 ft 9 kts 103°
2026-05-07 04:24 1.53744 124.92532 337 ft 9 kts 92°
2026-05-07 04:24 1.53758 124.92589 338 ft 8 kts 18°
2026-05-07 04:24 1.53796 124.92594 339 ft 0 kts
2026-05-07 04:25 1.53858 124.92596 340 ft 35 kts 360°
2026-05-07 04:26 1.54333 124.92611 339 ft 100 kts
2026-05-07 04:26 1.55233 124.92641 339 ft 156 kts
2026-05-07 04:26 1.56435 124.92659 589 ft 184 kts
2026-05-07 04:26 1.57733 124.92907 1275 ft 198 kts 20°
2026-05-07 04:27 1.59028 124.93394 2110 ft 198 kts 19°
2026-05-07 04:27 1.60382 124.93845 2660 ft 210 kts 17°
2026-05-07 04:27 1.61829 124.94268 3160 ft 226 kts 15°
2026-05-07 04:27 1.63416 124.94697 3579 ft 244 kts 15°
2026-05-07 04:28 1.65071 124.95130 4367 ft 247 kts 13°
2026-05-07 04:28 1.66759 124.95543 5124 ft 252 kts 13°
2026-05-07 04:28 1.68502 124.95962 5750 ft 264 kts 13°
2026-05-07 04:28 1.70343 124.96400 6249 ft 280 kts 12°
2026-05-07 04:29 1.72270 124.96858 6911 ft 285 kts 12°
2026-05-07 04:29 1.74195 124.97314 7754 ft 285 kts 12°
2026-05-07 04:29 1.76119 124.97770 8459 ft 289 kts 12°
2026-05-07 04:29 1.78113 124.98242 9218 ft 293 kts 12°
2026-05-07 04:30 1.80108 124.98713 9941 ft 296 kts 12°
2026-05-07 04:30 1.82057 124.99357 10460 ft 306 kts 27°
2026-05-07 04:30 1.83783 125.00653 10779 ft 323 kts 47°
2026-05-07 04:30 1.85024 125.02590 11179 ft 336 kts 68°
2026-05-07 04:31 1.85513 125.04890 11774 ft 341 kts 88°
2026-05-07 04:31 1.85185 125.07241 12452 ft 345 kts 108°
2026-05-07 04:31 1.84189 125.09431 13133 ft 348 kts 115°
2026-05-07 04:31 1.83105 125.11619 13755 ft 353 kts 116°
2026-05-07 04:32 1.81996 125.13809 14349 ft 355 kts 116°
2026-05-07 04:32 1.80862 125.16015 14953 ft 358 kts 116°
2026-05-07 04:32 1.79700 125.18227 15549 ft 360 kts 120°
2026-05-07 04:32 1.78103 125.20153 16128 ft 363 kts 139°
2026-05-07 04:33 1.75948 125.21487 16695 ft 367 kts 156°
2026-05-07 04:33 1.75156 125.21815 16861 ft 368 kts 157°
2026-05-07 04:33 1.72874 125.22728 17355 ft 371 kts 158°
2026-05-07 04:33 1.70466 125.23667 17896 ft 373 kts 158°
2026-05-07 04:34 1.68025 125.24602 18374 ft 376 kts 158°
2026-05-07 04:34 1.65577 125.25528 18792 ft 378 kts 158°
2026-05-07 04:34 1.63136 125.26446 19229 ft 380 kts 159°
2026-05-07 04:34 1.60646 125.27380 19634 ft 383 kts 159°
2026-05-07 04:35 1.58140 125.28319 20036 ft 386 kts 159°
2026-05-07 04:35 1.55615 125.29265 20439 ft 388 kts 159°
2026-05-07 04:35 1.53076 125.30216 20838 ft 390 kts 159°
2026-05-07 04:35 1.50522 125.31173 21236 ft 393 kts 159°
2026-05-07 04:36 1.47954 125.32135 21614 ft 395 kts 158°
2026-05-07 04:36 1.45366 125.33104 21998 ft 398 kts 158°
2026-05-07 04:36 1.42769 125.34076 22372 ft 400 kts 159°
2026-05-07 04:36 1.40186 125.35044 22731 ft 403 kts 158°
2026-05-07 04:37 1.37550 125.36032 23091 ft 405 kts 158°
2026-05-07 04:37 1.34899 125.37024 23448 ft 407 kts 158°
2026-05-07 04:37 1.32234 125.38022 23741 ft 409 kts 159°
2026-05-07 04:37 1.29563 125.39023 24046 ft 411 kts 159°
2026-05-07 04:38 1.26882 125.40027 24354 ft 412 kts 159°
2026-05-07 04:38 1.24188 125.41036 24657 ft 414 kts 159°
2026-05-07 04:38 1.21486 125.42048 24950 ft 416 kts 159°
2026-05-07 04:38 1.18805 125.43051 25246 ft 417 kts 159°
2026-05-07 04:39 1.16082 125.44071 25538 ft 419 kts 159°
2026-05-07 04:39 1.13344 125.45096 25821 ft 421 kts 159°
2026-05-07 04:39 1.10601 125.46124 26105 ft 422 kts 159°
2026-05-07 04:39 1.07836 125.47159 26394 ft 424 kts 159°
2026-05-07 04:40 1.05063 125.48198 26680 ft 426 kts 159°
2026-05-07 04:40 1.02285 125.49239 26959 ft 427 kts 159°
2026-05-07 04:40 0.99498 125.50283 27244 ft 429 kts 159°
2026-05-07 04:40 0.96725 125.51322 27510 ft 431 kts 159°
2026-05-07 04:41 0.93916 125.52374 27776 ft 433 kts 159°
2026-05-07 04:41 0.91091 125.53432 28055 ft 434 kts 159°
2026-05-07 04:41 0.88261 125.54493 28318 ft 436 kts 159°
2026-05-07 04:41 0.85411 125.55560 28582 ft 437 kts 159°
2026-05-07 04:42 0.82557 125.56629 28842 ft 439 kts 159°
2026-05-07 04:42 0.79690 125.57704 29091 ft 441 kts 159°
2026-05-07 04:42 0.76810 125.58782 29340 ft 442 kts 159°
2026-05-07 04:42 0.73927 125.59862 29583 ft 444 kts 159°
2026-05-07 04:43 0.71020 125.60951 29825 ft 446 kts 159°
2026-05-07 04:43 0.68114 125.62039 30047 ft 447 kts 159°
2026-05-07 04:43 0.65203 125.63130 30255 ft 448 kts 159°
2026-05-07 04:43 0.62279 125.64225 30457 ft 449 kts 159°
2026-05-07 04:44 0.59333 125.65329 30658 ft 451 kts 159°
2026-05-07 04:44 0.56394 125.66429 30842 ft 452 kts 159°
2026-05-07 04:44 0.53443 125.67535 31056 ft 453 kts 159°
2026-05-07 04:44 0.50488 125.68642 31245 ft 455 kts 159°
2026-05-07 04:45 0.47524 125.69752 31433 ft 456 kts 159°
2026-05-07 04:45 0.44555 125.70864 31642 ft 457 kts 159°
2026-05-07 04:45 0.41571 125.71982 31814 ft 458 kts 159°
2026-05-07 04:45 0.38591 125.73098 31999 ft 459 kts 159°
2026-05-07 04:46 0.35587 125.74223 32182 ft 460 kts 159°
2026-05-07 04:46 0.32578 125.75350 32365 ft 462 kts 159°
2026-05-07 04:46 0.29605 125.76463 32531 ft 463 kts 159°
2026-05-07 04:46 0.26584 125.77595 32691 ft 464 kts 159°
2026-05-07 04:47 0.23558 125.78728 32898 ft 464 kts 159°
2026-05-07 04:47 0.20520 125.79866 33144 ft 464 kts 159°
2026-05-07 04:47 0.17497 125.80998 33382 ft 463 kts 159°
2026-05-07 04:47 0.14485 125.82126 33628 ft 462 kts 159°
2026-05-07 04:48 0.11475 125.83254 33865 ft 462 kts 159°
2026-05-07 04:48 0.08506 125.84365 34062 ft 461 kts 159°
2026-05-07 04:48 0.05472 125.85502 34263 ft 460 kts 159°
2026-05-07 04:48 0.02510 125.86611 34455 ft 460 kts 159°
2026-05-07 04:49 -0.00485 125.87733 34676 ft 459 kts 159°
2026-05-07 04:49 -0.03470 125.88851 34813 ft 459 kts 159°
2026-05-07 04:49 -0.06360 125.90182 34814 ft 455 kts 146°
2026-05-07 04:49 -0.08970 125.91973 34835 ft 456 kts 146°
2026-05-07 04:50 -0.14245 125.95518 34838 ft 456 kts 146°
2026-05-07 04:50 -0.19488 125.99091 34828 ft 456 kts 146°
2026-05-07 04:51 -0.24705 126.02652 34833 ft 456 kts 145°
2026-05-07 04:51 -0.29947 126.06230 34832 ft 456 kts 145°
2026-05-07 04:52 -0.35195 126.09813 34831 ft 456 kts 145°
2026-05-07 04:52 -0.40432 126.13388 34832 ft 456 kts 145°
2026-05-07 04:53 -0.45688 126.16975 34831 ft 456 kts 145°
2026-05-07 04:53 -0.50899 126.20533 34833 ft 456 kts 145°
2026-05-07 04:54 -0.56144 126.24113 34831 ft 456 kts 145°
2026-05-07 04:54 -0.61395 126.27699 34832 ft 456 kts 145°
2026-05-07 04:55 -0.66639 126.31278 34828 ft 456 kts 145°
2026-05-07 04:55 -0.71886 126.34861 34831 ft 456 kts 145°
2026-05-07 04:56 -0.77126 126.38438 34830 ft 457 kts 145°
2026-05-07 04:56 -0.82358 126.42010 34832 ft 457 kts 145°
2026-05-07 04:57 -0.87614 126.45575 34830 ft 457 kts 148°
2026-05-07 04:57 -0.93010 126.48939 34830 ft 457 kts 147°
2026-05-07 04:58 -0.98389 126.52318 34827 ft 456 kts 147°
2026-05-07 04:58 -1.03756 126.55693 34829 ft 456 kts 147°
2026-05-07 04:59 -1.09136 126.59077 34830 ft 457 kts 147°
2026-05-07 04:59 -1.13607 126.61889 34823 ft 457 kts 147°
2026-05-07 05:00 -1.19869 126.65828 34827 ft 457 kts 148°
2026-05-07 05:00 -1.24344 126.68643 34828 ft 457 kts 147°
2026-05-07 05:01 -1.29726 126.72029 34827 ft 457 kts 148°
2026-05-07 05:01 -1.35109 126.75415 34833 ft 457 kts 148°
2026-05-07 05:02 -1.40497 126.78805 34832 ft 457 kts 148°
2026-05-07 05:02 -1.45880 126.82192 34831 ft 457 kts 148°
2026-05-07 05:03 -1.51272 126.85583 34829 ft 457 kts 148°
2026-05-07 05:03 -1.56620 126.88949 34828 ft 457 kts 148°
2026-05-07 05:04 -1.61999 126.92334 34829 ft 457 kts 148°
2026-05-07 05:04 -1.67386 126.95724 34829 ft 457 kts 148°
2026-05-07 05:05 -1.72772 126.99114 34829 ft 457 kts 148°
2026-05-07 05:05 -1.78170 127.02511 34828 ft 457 kts 148°
2026-05-07 05:06 -1.83556 127.05901 34831 ft 458 kts 148°
2026-05-07 05:06 -1.88950 127.09296 34827 ft 458 kts 148°
2026-05-07 05:07 -1.94302 127.12666 34824 ft 458 kts 148°
2026-05-07 05:07 -1.99696 127.16061 34825 ft 458 kts 148°
2026-05-07 05:08 -2.05094 127.19461 34827 ft 458 kts 148°
2026-05-07 05:08 -2.10481 127.22852 34823 ft 458 kts 148°
2026-05-07 05:09 -2.15879 127.26252 34826 ft 458 kts 148°
2026-05-07 05:09 -2.21259 127.29640 34825 ft 458 kts 148°
2026-05-07 05:10 -2.26650 127.33056 34824 ft 457 kts 147°
2026-05-07 05:10 -2.32024 127.36462 34824 ft 457 kts 147°
2026-05-07 05:11 -2.37399 127.39868 34824 ft 457 kts 147°
2026-05-07 05:11 -2.42778 127.43277 34824 ft 457 kts 147°
2026-05-07 05:12 -2.48118 127.46662 34826 ft 457 kts 147°
2026-05-07 05:12 -2.53509 127.50078 34824 ft 457 kts 147°
2026-05-07 05:13 -2.58885 127.53486 34817 ft 457 kts 147°
2026-05-07 05:13 -2.64261 127.56895 34815 ft 457 kts 147°
2026-05-07 05:14 -2.69603 127.60282 34823 ft 457 kts 147°
2026-05-07 05:14 -2.74994 127.63700 34822 ft 457 kts 147°
2026-05-07 05:15 -2.80372 127.67111 34823 ft 458 kts 147°
2026-05-07 05:15 -2.85759 127.70527 34820 ft 458 kts 147°
2026-05-07 05:16 -2.91106 127.73919 34819 ft 458 kts 147°
2026-05-07 05:16 -2.96489 127.77334 34821 ft 458 kts 147°
2026-05-07 05:17 -3.01889 127.80760 34811 ft 458 kts 147°
2026-05-07 05:17 -3.07311 127.84202 34813 ft 461 kts 147°
2026-05-07 05:18 -3.12730 127.87640 34809 ft 461 kts 147°
2026-05-07 05:18 -3.18116 127.91059 34811 ft 461 kts 147°
2026-05-07 05:19 -3.23523 127.94491 34809 ft 460 kts 147°
2026-05-07 05:19 -3.28929 127.97923 34809 ft 460 kts 147°
2026-05-07 05:20 -3.34337 128.01357 34805 ft 459 kts 147°
2026-05-07 05:20 -3.39742 128.04789 34812 ft 460 kts 147°
2026-05-07 05:21 -3.47733 128.09864 34816 ft 460 kts 147°
2026-05-07 05:22 -3.53148 128.13304 34822 ft 460 kts 147°
2026-05-07 05:22 -3.58557 128.16741 34822 ft 460 kts 147°
2026-05-07 05:23 -3.63863 128.20333 34828 ft 461 kts 144°
2026-05-07 05:23 -3.69116 128.24017 34821 ft 461 kts 145°
2026-05-07 05:24 -3.74387 128.27699 34822 ft 462 kts 145°
2026-05-07 05:24 -3.79637 128.31365 34823 ft 462 kts 145°
2026-05-07 05:25 -3.84920 128.35056 34818 ft 464 kts 145°
2026-05-07 05:25 -3.90221 128.38760 34816 ft 465 kts 145°
2026-05-07 05:26 -3.95522 128.42464 34819 ft 466 kts 144°
2026-05-07 05:26 -4.00852 128.46189 34819 ft 466 kts 144°
2026-05-07 05:27 -4.06165 128.49902 34820 ft 466 kts 144°
2026-05-07 05:27 -4.11480 128.53619 34824 ft 466 kts 144°
2026-05-07 05:28 -4.16795 128.57335 34822 ft 466 kts 144°
2026-05-07 05:28 -4.22108 128.61050 34819 ft 466 kts 144°
2026-05-07 05:29 -4.27403 128.64754 34820 ft 466 kts 144°
2026-05-07 05:29 -4.32724 128.68476 34828 ft 467 kts 144°
2026-05-07 05:30 -4.38052 128.72205 34825 ft 467 kts 144°
2026-05-07 05:30 -4.43388 128.75939 34828 ft 467 kts 144°
2026-05-07 05:31 -4.48715 128.79667 34826 ft 467 kts 144°
2026-05-07 05:31 -4.54026 128.83386 34827 ft 467 kts 144°
2026-05-07 05:32 -4.59357 128.87119 34825 ft 467 kts 144°
2026-05-07 05:32 -4.64667 128.90838 34824 ft 467 kts 144°
2026-05-07 05:33 -4.70002 128.94574 34821 ft 468 kts 144°
2026-05-07 05:33 -4.75345 128.98318 34825 ft 468 kts 144°
2026-05-07 05:34 -4.80687 129.02061 34824 ft 469 kts 144°
2026-05-07 05:34 -4.86041 129.05813 34822 ft 470 kts 144°
2026-05-07 05:35 -4.91396 129.09568 34822 ft 470 kts 144°
2026-05-07 05:35 -4.96773 129.13338 34821 ft 471 kts 144°
2026-05-07 05:36 -5.02140 129.17102 34821 ft 471 kts 144°
2026-05-07 05:36 -5.07484 129.20850 34821 ft 471 kts 144°
2026-05-07 05:37 -5.12855 129.24619 34822 ft 471 kts 145°
2026-05-07 05:37 -5.18224 129.28386 34825 ft 471 kts 145°
2026-05-07 05:38 -5.23606 129.32163 34823 ft 471 kts 145°
2026-05-07 05:38 -5.28982 129.35938 34826 ft 471 kts 145°
2026-05-07 05:39 -5.34351 129.39708 34822 ft 471 kts 145°
2026-05-07 05:39 -5.39695 129.43461 34823 ft 471 kts 145°
2026-05-07 05:40 -5.45056 129.47227 34820 ft 471 kts 145°
2026-05-07 05:40 -5.50424 129.50999 34820 ft 470 kts 146°
2026-05-07 05:41 -5.55783 129.54765 34821 ft 470 kts 146°
2026-05-07 05:41 -5.61141 129.58532 34821 ft 470 kts 146°
2026-05-07 05:42 -5.66505 129.62304 34820 ft 470 kts 146°
2026-05-07 05:42 -5.71865 129.66074 34821 ft 470 kts 146°
2026-05-07 05:43 -5.77201 129.69827 34824 ft 471 kts 146°
2026-05-07 05:43 -5.82571 129.73605 34821 ft 471 kts 146°
2026-05-07 05:44 -5.87946 129.77389 34822 ft 471 kts 146°
2026-05-07 05:44 -5.93314 129.81167 34823 ft 471 kts 145°
2026-05-07 05:45 -5.98672 129.84940 34823 ft 471 kts 145°
2026-05-07 05:45 -6.03132 129.88081 34827 ft 472 kts 145°
2026-05-07 05:46 -6.08509 129.91869 34822 ft 472 kts 146°
2026-05-07 05:46 -6.13897 129.95665 34824 ft 473 kts 145°
2026-05-07 05:47 -6.20170 130.00086 34824 ft 473 kts 146°
2026-05-07 05:47 -6.24687 130.03271 34825 ft 473 kts 146°
2026-05-07 05:48 -6.30075 130.07070 34825 ft 474 kts 146°
2026-05-07 05:48 -6.35483 130.10885 34827 ft 474 kts 146°
2026-05-07 05:49 -6.36357 130.11501 34828 ft 474 kts 146°